Simultaneous Nadir Overpasses (SNOs) Predictions

Prediction of SNOs between NOAA-19 and METOP-C Satellite Orbit:

Table of predicted SNOs for the next 14.0 days since TLE Epoch: 5/7/2022
Index Date (NOAA-19) Time (NOAA-19) Lat,Lon (NOAA-19) SZA (NOAA-19 ) Date (METOP-C) Time (METOP-C) Lat,Lon (METOP-C) SZA (METOP-C ) Distance(km) Time Diff (sec)
1 05/18/2022 00:21:41 -80.83, 27.53 117.07 05/18/2022 00:22:42 -80.83, 27.45 117.05 1.46 61
2 05/18/2022 01:12:40 80.82,-165.06 62.94 05/18/2022 01:13:23 80.83,-165.23 62.94 3.12 43
3 05/18/2022 02:03:41 -80.83, 2.01 117.09 05/18/2022 02:04:04 -80.82, 1.95 117.09 1.19 23
4 05/18/2022 02:54:40 80.82, 169.43 62.92 05/18/2022 02:54:45 80.82, 169.27 62.90 2.93 5
5 05/18/2022 03:45:41 -80.83, -23.51 117.11 05/18/2022 03:45:26 -80.81, -23.56 117.13 1.78 15
6 05/18/2022 04:36:40 80.82, 143.92 62.90 05/18/2022 04:36:07 80.81, 143.76 62.87 3.12 33
7 05/18/2022 05:27:40 -80.82, -48.66 117.10 05/18/2022 05:26:47 -80.82, -48.72 117.12 1.07 53



Historial Predications of SNOs between NOAA-19 and METOP-C
